Location: Easter Hill Village
(37.9235°N, 122.3444°W)
Time: 07:27:10
(UTC+00:00)

Cosmos 2242 Rocket - Pass Details

Date: 16 September 2019
Orbit: 618 x 652 km, 82.5° (Epoch: 17 October)

Event Time Altitude Azimuth Distance (km) Brightness Sun altitude
Rises 13:08:41 0° 205° (SSW) 2,954 6.7 -9.3°
Reaches altitude 10° 13:11:04 10° 214° (SW) 2,045 5.8 -8.8°
Maximum altitude 13:15:16 37° 282° (WNW) 1,007 4.2 -8.0°
Drops below altitude 10° 13:19:29 10° 350° (N) 2,042 6.2 -7.2°
Sets 13:21:53 0° 359° (N) 2,950 7.1 -6.7°
